Вернуться в каталог

JILIN-1 GAOFEN 07B 02 XING

АктивенНаукаSSO
NORAD 68694·PAYLOAD·🇨🇳 China
Это название спутника еще не подтверждено официальными источниками.

Запущен Apr 14, 2026 с Jiuquan Satellite Launch Center

Loading…

Ближайшие Пролёты (ближайшие 24 часа)

TLE

СвежийSource: Space-Track

Эпоха: Sep 14, 2026, 12:39 UTC

1 68694U 26080D   26257.52741123  .00003274  00000-0  21158-3 0  9992
2 68694  97.6594 332.9848 0019539 117.4629 242.8589 15.08782508 23118

Отслеживайте JILIN-1 GAOFEN 07B 02 XING в реальном времени с AllMySat

Download on the App Store